Location: Santa Teresa Spring
(37.2333°N, 121.7000°W)
Time: 09:31:14
(UTC-08:00)

ISS - Visible Passes

Search period start: 22 February 2017 00:00
Search period end: 04 March 2017 00:00
Orbit: 399 x 408 km, 51.6° (Epoch: 23 February)

Date Brightness Start Highest point End Pass type
(mag) Time Alt. Az. Time Alt. Az. Time Alt. Az.
28 Feb -0.4 05:27:13 10° SSE 05:29:16 16° SE 05:31:19 10° E visible
01 Mar -3.3 06:09:34 10° SW 06:12:51 88° SE 06:16:09 10° NE visible
02 Mar -2.1 05:18:01 16° SSW 05:20:20 40° SE 05:23:26 10° ENE visible
03 Mar -0.8 04:28:11 19° ESE 04:28:11 19° ESE 04:30:19 10° E visible
03 Mar -2.6 06:01:03 10° WSW 06:04:08 37° NW 06:07:14 10° NE visible
